Location: Chuathbaluk
(61.5726°N, 159.2454°W)
Time: 03:04:37
(UTC+00:00)

SR - Pass Details

Date: 03 December 2020
Orbit: 575 x 880 km, 66.7° (Epoch: 23 January)

Event Time Altitude Azimuth Distance (km) Brightness Sun altitude
Rises 04:43:12 0° 206° (SSW) 2,862 ? -21.3°
Reaches altitude 10° 04:45:27 10° 200° (SSW) 1,995 ? -21.6°
Enters shadow 04:49:19 43° 143° (SE) 930 ? -22.0°
